1497506400.09,17644,17.44,74004.3,12.95,-29.35,-30.27,0,*49
1497506401.34,17645,17.44,74006.5,12.95,-28.21,-28.91,0,*48
1497506402.6,17646,17.44,74008.8,12.91,-28.79,-29.61,0,*4C
1497506403.85,17647,17.44,74008.3,12.91,-28.75,-29.45,0,*47
1497506405.06,17648,17.44,74002.0,12.89,-27.55,-28.15,0,*48
1497506406.31,17649,17.44,74004.8,12.89,-27.99,-28.79,0,*43
1497506407.57,17650,17.44,74006.5,12.89,-28.59,-29.35,0,*41
1497506408.77,17651,17.44,74008.5,12.89,-28.97,-29.95,0,*48
1497506410.03,17652,17.44,74004.8,12.87,-28.63,-29.45,0,*43
1497506411.28,17653,17.44,74006.5,12.87,-29.01,-29.95,0,*4A
1497506412.51,17654,17.44,74004.8,12.85,-28.85,-29.73,0,*4A
1497506413.76,17655,17.44,74006.3,12.85,-28.79,-29.73,0,*48
1497506414.99,17656,17.44,74006.3,12.85,-29.01,-29.83,0,*4A
1497506416.24,17657,17.44,74004.0,12.83,-27.51,-28.25,0,*4B
1497506417.48,17658,17.44,74002.3,12.81,-29.67,-30.55,0,*43
1497506418.7,17659,17.44,74002.0,12.81,-28.63,-29.61,0,*48
1497506419.96,17660,17.44,74004.0,12.81,-29.29,-30.17,0,*44
1497506421.25,17661,17.44,74004.3,12.79,-27.61,-28.47,0,*4C
1497506422.47,17662,17.44,74006.5,12.79,-28.97,-30.11,0,*43
1497506423.72,17663,17.44,74006.5,12.79,-29.79,-30.51,0,*47
1497506424.96,17664,17.44,74006.5,12.77,-27.61,-28.37,0,*40
1497506426.19,17665,17.44,74004.3,12.77,-27.45,-28.37,0,*47
1497506427.39,17666,17.44,74002.0,12.77,-27.93,-28.85,0,*46
1497506428.66,17667,17.44,74004.5,12.77,-27.61,-28.63,0,*42
1497506429.94,17668,17.44,74004.5,12.79,-28.63,-29.51,0,*4E
1497506431.17,17669,17.44,74006.0,12.77,-27.13,-27.83,0,*48
1497506432.4,17670,17.44,74004.0,12.77,-26.61,-27.35,0,*49
1497506433.63,17671,17.44,74006.3,12.77,-25.81,-26.61,0,*45
1497506434.88,17672,17.44,74006.5,12.77,-26.13,-26.77,0,*49
1497506436.1,17673,17.44,74008.8,12.83,-26.87,-27.55,0,*4F
1497506437.34,17674,17.44,74006.0,12.81,-26.07,-26.77,0,*43
1497506438.61,17675,17.44,74008.5,12.83,-27.35,-28.43,0,*49
1497506439.86,17676,17.44,74006.0,12.83,-28.09,-28.97,0,*43
1497506441.12,17677,17.44,74006.0,12.83,-26.81,-27.67,0,*4C
1497506442.4,17678,17.44,74004.0,12.83,-27.39,-28.25,0,*48
1497506443.67,17679,17.44,74006.0,12.83,-27.35,-28.21,0,*41
1497506444.93,17680,17.44,74006.0,12.85,-25.97,-26.77,0,*46
1497506446.18,17681,17.44,74006.0,12.87,-27.23,-28.31,0,*44
1497506447.44,17682,17.44,74004.0,12.85,-26.97,-27.83,0,*4D
1497506448.72,17683,17.44,74006.3,12.87,-26.81,-27.61,0,*45
1497506449.97,17684,17.44,74010.0,12.87,-25.75,-26.45,0,*4D
1497506451.23,17685,17.44,74006.8,12.87,-26.81,-27.55,0,*44
1497506452.46,17686,17.44,74004.0,12.89,-26.81,-27.71,0,*4F
1497506453.67,17687,17.44,74006.5,12.89,-27.13,-27.77,0,*42
1497506454.94,17688,17.44,74004.8,12.91,-25.75,-26.55,0,*47
1497506456.2,17689,17.44,74006.8,12.91,-26.49,-27.23,0,*4A
1497506457.48,17690,17.44,74010.0,12.91,-26.77,-27.39,0,*44
1497506458.73,17691,17.44,74006.8,12.91,-25.75,-26.49,0,*42
1497506460.02,17692,17.44,74006.3,12.97,-25.55,-26.33,0,*48
1497506461.22,17693,17.44,74006.5,12.95,-27.51,-28.53,0,*45
1497506462.49,17694,17.44,74006.5,12.97,-26.97,-27.71,0,*44
1497506463.69,17695,17.44,74010.0,12.95,-26.87,-27.71,0,*46
1497506464.95,17696,17.44,74004.3,12.97,-26.65,-27.45,0,*4C
1497506466.24,17697,17.44,74010.0,12.97,-26.81,-27.61,0,*41
1497506467.5,17698,17.44,74006.5,12.99,-28.43,-29.35,0,*4F
1497506468.74,17699,17.44,74004.0,12.95,-26.29,-27.03,0,*4B
1497506470.0,17700,17.44,74004.8,12.97,-25.49,-26.13,0,*4D
1497506471.26,17701,17.44,74002.0,12.97,-27.45,-28.37,0,*4A
1497506472.53,17702,17.44,74006.3,12.97,-26.81,-27.67,0,*4A
1497506473.78,17703,17.44,74004.0,12.97,-26.61,-27.19,0,*4C
1497506475.02,17704,17.44,74006.5,12.99,-26.29,-27.13,0,*43
1497506476.28,17705,17.44,74006.5,13.01,-27.77,-28.63,0,*40
1497506477.52,17706,17.44,74002.8,12.99,-26.97,-27.93,0,*4C
1497506478.75,17707,17.44,74006.8,12.99,-28.31,-29.29,0,*40
1497506479.98,17708,17.44,74008.0,12.99,-28.15,-29.01,0,*43
1497506481.22,17709,17.44,74004.0,12.97,-28.69,-29.57,0,*44
1497506482.47,17710,17.44,74004.5,12.97,-27.83,-28.53,0,*42
1497506483.68,17711,17.44,74006.5,12.95,-27.29,-28.15,0,*43
1497506484.91,17712,17.44,74004.3,12.95,-27.35,-28.37,0,*4D
1497506486.14,17713,17.44,74006.5,12.95,-28.15,-29.01,0,*45
1497506487.37,17714,17.44,74006.5,12.95,-26.97,-27.71,0,*4F
1497506488.61,17715,17.44,74006.8,12.95,-27.61,-28.53,0,*49
1497506489.84,17716,17.44,74010.3,12.95,-28.63,-29.67,0,*41
1497506491.07,17717,17.44,74006.0,12.89,-28.79,-29.79,0,*49
1497506492.34,17718,17.44,74004.0,12.91,-26.71,-27.39,0,*43
1497506493.6,17719,17.44,74004.5,12.91,-26.33,-27.07,0,*49
1497506494.85,17720,17.44,74004.5,12.91,-26.71,-27.51,0,*46
1497506496.1,17721,17.44,74008.3,12.95,-27.19,-28.21,0,*44
1497506497.36,17722,17.44,74004.0,12.95,-28.05,-29.17,0,*41
1497506498.57,17723,17.44,74008.3,12.95,-26.49,-27.51,0,*4A
1497506499.77,17724,17.44,74004.0,12.95,-25.87,-26.65,0,*4A
1497506501.06,17725,17.44,74008.0,12.97,-26.33,-27.19,0,*4F
1497506502.29,17726,17.44,74010.5,12.95,-26.49,-27.35,0,*4D
1497506503.53,17727,17.44,74006.8,12.99,-26.33,-27.13,0,*49
1497506504.77,17728,17.44,74006.8,12.97,-27.13,-28.15,0,*42
1497506506.06,17729,17.44,74008.8,12.97,-25.97,-26.71,0,*41
1497506507.32,17730,17.44,74004.0,12.99,-26.29,-26.97,0,*49
1497506508.58,17731,17.44,74006.0,13.01,-26.39,-27.23,0,*47
1497506509.84,17732,17.44,74000.3,13.01,-27.67,-28.63,0,*45
1497506511.08,17733,17.44,74006.5,12.99,-27.23,-28.15,0,*45
1497506512.36,17734,17.44,74006.0,13.01,-27.39,-28.43,0,*4A
1497506513.64,17735,17.44,74008.0,13.01,-28.09,-29.01,0,*40
1497506514.9,17736,17.44,74006.0,12.99,-27.39,-28.43,0,*48
1497506516.17,17737,17.44,74004.5,12.99,-26.13,-26.97,0,*47
1497506517.43,17738,17.44,74004.3,12.99,-26.81,-27.83,0,*47
1497506518.67,17739,17.44,74002.5,12.99,-26.55,-27.29,0,*4F
1497506519.93,17740,17.44,74006.0,12.99,-25.97,-26.77,0,*46
1497506521.19,17741,17.44,74006.8,13.01,-26.45,-27.39,0,*40
1497506522.45,17742,17.44,74008.5,13.01,-26.97,-27.93,0,*4C
1497506523.73,17743,17.44,74006.5,13.01,-26.55,-27.39,0,*43
1497506524.99,17744,17.44,74008.3,13.01,-26.13,-27.07,0,*4B
1497506526.22,17745,17.44,74006.0,13.01,-25.91,-26.65,0,*46
1497506527.43,17746,17.44,74006.0,13.03,-26.61,-27.55,0,*49
1497506528.68,17747,17.44,74006.8,13.03,-26.71,-27.39,0,*43
1497506529.94,17748,17.44,74006.5,13.05,-25.55,-26.49,0,*49
1497506531.23,17749,17.44,74008.0,13.05,-25.97,-26.71,0,*4D
1497506532.51,17750,17.44,74008.0,13.05,-25.97,-26.71,0,*45
1497506533.75,17751,17.44,74004.0,13.07,-26.97,-27.89,0,*43
1497506535.01,17752,17.44,74006.5,13.09,-26.97,-27.93,0,*45
1497506536.27,17753,17.44,74006.0,13.07,-26.97,-27.83,0,*4B
1497506537.51,17754,17.44,74006.3,13.07,-27.03,-27.99,0,*4B
1497506538.77,17755,17.44,74008.0,13.09,-27.39,-28.31,0,*40
1497506540.03,17756,17.44,74006.0,13.09,-26.77,-27.67,0,*44
1497506541.27,17757,17.44,74006.0,13.09,-26.65,-27.51,0,*43
1497506542.48,17758,17.44,74006.0,13.07,-27.03,-28.15,0,*4C
1497506543.75,17759,17.44,74006.0,13.09,-27.23,-28.31,0,*47
1497506544.96,17760,17.44,74006.0,13.07,-27.67,-28.69,0,*4E
1497506546.19,17761,17.44,74006.5,13.07,-27.83,-28.85,0,*47
1497506547.44,17762,17.44,74006.5,13.07,-28.21,-29.17,0,*49
1497506548.67,17763,17.44,74006.5,13.07,-28.21,-29.23,0,*4F
1497506549.93,17764,17.44,74006.5,13.05,-27.45,-28.37,0,*43
1497506551.22,17765,17.44,74008.5,13.05,-26.33,-27.19,0,*41
1497506552.48,17766,17.44,74006.5,13.05,-27.51,-28.47,0,*43
1497506553.73,17767,17.44,74008.0,13.05,-27.67,-28.75,0,*46
1497506554.99,17768,17.44,74004.8,13.05,-26.71,-27.55,0,*42
1497506556.24,17769,17.44,74006.8,13.05,-26.87,-27.83,0,*41
1497506557.5,17770,17.44,74004.0,13.05,-25.55,-26.49,0,*42
1497506558.72,17771,17.44,74006.8,13.07,-26.65,-27.51,0,*49
1497506559.93,17772,17.44,74004.8,13.07,-27.89,-28.85,0,*4F
1497506561.19,17773,17.44,74004.3,13.09,-26.97,-27.77,0,*4C
1497506562.42,17774,17.44,74004.3,13.07,-26.71,-27.71,0,*4B
1497506563.68,17775,17.44,74006.0,13.09,-26.77,-27.67,0,*45
1497506564.94,17776,17.44,74004.5,13.07,-26.81,-27.83,0,*4B
1497506566.17,17777,17.44,74004.0,13.09,-26.23,-27.13,0,*45
1497506567.43,17778,17.44,74004.3,13.09,-26.39,-27.23,0,*42
1497506568.66,17779,17.44,74004.0,13.11,-26.03,-26.77,0,*43
1497506569.96,17780,17.44,74008.0,13.13,-27.61,-28.63,0,*49
1497506571.22,17781,17.44,74006.0,13.11,-27.61,-28.63,0,*4A
1497506572.47,17782,17.44,74004.8,13.11,-28.25,-29.29,0,*49
1497506573.67,17783,17.44,74004.3,13.11,-27.89,-28.97,0,*45
1497506574.95,17784,17.44,74006.3,13.09,-27.45,-28.47,0,*46
1497506576.23,17785,17.44,74006.5,13.09,-27.99,-29.01,0,*45
1497506577.49,17786,17.44,74004.5,13.07,-27.19,-28.05,0,*45
1497506578.74,17787,17.44,74004.0,13.09,-26.23,-26.93,0,*43
1497506579.99,17788,17.44,74006.5,13.09,-25.29,-26.23,0,*4E
1497506581.24,17789,17.44,74006.0,13.09,-26.45,-27.45,0,*47
1497506582.47,17790,17.44,74004.3,13.11,-25.61,-26.55,0,*43
1497506583.7,17791,17.44,74004.8,13.13,-25.39,-26.07,0,*4A
1497506584.93,17792,17.44,74006.5,13.13,-26.07,-26.87,0,*4F
1497506586.19,17793,17.44,74008.0,13.17,-26.17,-27.03,0,*46
1497506587.39,17794,17.44,74004.3,13.19,-26.61,-27.67,0,*4C
1497506588.63,17795,17.44,74006.3,13.17,-26.65,-27.67,0,*47
1497506589.88,17796,17.44,74000.3,13.17,-26.81,-27.77,0,*4F
1497506591.13,17797,17.44,74006.0,13.19,-28.09,-29.13,0,*42
1497506592.36,17798,17.44,74004.0,13.17,-26.49,-27.29,0,*4E
1497506593.59,17799,17.44,74006.3,13.19,-25.75,-26.61,0,*40
1497506594.81,17800,17.44,74010.3,13.19,-25.29,-26.23,0,*40
1497506596.0,17801,17.44,74006.8,13.19,-25.65,-26.65,0,*4B
1497506597.24,17802,17.44,74006.0,13.21,-26.49,-27.51,0,*48
1497506598.5,17803,17.44,74004.0,13.21,-27.07,-27.99,0,*46
1497506599.78,17804,17.44,74004.5,13.21,-28.47,-29.51,0,*40
1497506601.01,17805,17.44,74006.0,13.21,-27.29,-28.37,0,*47
1497506602.3,17806,17.44,74006.8,13.21,-26.97,-27.99,0,*4B
1497506603.54,17807,17.44,74008.5,13.21,-26.65,-27.51,0,*43
1497506604.79,17808,17.44,74006.5,13.23,-26.71,-27.61,0,*48
1497506606.08,17809,17.44,74004.0,13.21,-26.97,-27.99,0,*44
1497506607.31,17810,17.44,74006.5,13.21,-27.77,-28.85,0,*41
1497506608.57,17811,17.44,74004.0,13.21,-27.45,-28.37,0,*48
1497506609.76,17812,17.44,74008.0,13.19,-26.07,-27.13,0,*4E
1497506611.0,17813,17.44,74008.0,13.23,-25.61,-26.29,0,*4D
1497506612.23,17814,17.44,74006.5,13.21,-26.49,-27.51,0,*4F
1497506613.44,17815,17.44,74006.5,13.23,-26.03,-27.03,0,*45
1497506614.68,17816,17.44,74004.3,13.23,-27.07,-28.25,0,*48
1497506615.93,17817,17.44,74004.3,13.23,-26.29,-27.19,0,*44
1497506617.16,17818,17.44,74006.3,13.23,-27.29,-28.59,0,*41
1497506618.42,17819,17.44,74006.3,13.23,-27.23,-28.25,0,*41
1497506619.7,17820,17.44,74004.5,13.21,-27.45,-28.75,0,*4C
1497506620.93,17821,17.44,74004.3,13.21,-28.53,-29.67,0,*47
1497506622.19,17822,17.44,74004.0,13.21,-27.23,-28.37,0,*48
1497506623.44,17823,17.44,74004.3,13.21,-28.47,-29.57,0,*43
1497506624.7,17824,17.44,74006.5,13.23,-27.61,-28.63,0,*4B
1497506625.93,17825,17.44,74006.5,13.19,-26.97,-27.93,0,*4B
1497506627.16,17826,17.44,74004.8,13.21,-26.49,-27.77,0,*4A
1497506628.42,17827,17.44,74004.8,13.21,-27.13,-28.25,0,*4D
1497506629.71,17828,17.44,74006.0,13.21,-26.97,-28.09,0,*41
1497506630.96,17829,17.44,74006.8,13.21,-27.07,-28.09,0,*48
1497506632.22,17830,17.44,74004.3,13.21,-26.29,-27.13,0,*49
1497506633.48,17831,17.44,74004.3,13.21,-27.07,-27.99,0,*47
1497506634.74,17832,17.44,74004.8,13.21,-28.15,-29.35,0,*40
1497506635.98,17833,17.44,74006.3,13.19,-28.25,-29.29,0,*44
1497506637.26,17834,17.44,74006.8,13.21,-27.23,-28.25,0,*4C
1497506638.52,17835,17.44,74008.0,13.19,-26.93,-27.83,0,*4F
1497506639.74,17836,17.44,74004.8,13.21,-26.07,-27.13,0,*43
1497506640.97,17837,17.44,74006.0,13.21,-25.65,-26.61,0,*41
1497506642.23,17838,17.44,74004.5,13.21,-25.13,-25.97,0,*45
1497506643.46,17839,17.44,74004.3,13.23,-25.45,-26.39,0,*42
1497506644.66,17840,17.44,74006.5,13.25,-25.09,-25.91,0,*43
1497506645.87,17841,17.44,74010.5,13.25,-25.13,-26.03,0,*41
1497506647.13,17842,17.44,74008.8,13.29,-24.83,-25.81,0,*4F
1497506648.36,17843,17.44,74006.0,13.31,-24.77,-25.87,0,*4A
1497506649.59,17844,17.44,74010.5,13.31,-25.91,-26.87,0,*47
1497506650.83,17845,17.44,74006.0,13.31,-25.13,-26.07,0,*44
1497506652.05,17846,17.44,74008.3,13.35,-25.19,-26.07,0,*49
1497506653.29,17847,17.44,74008.0,13.35,-26.23,-27.35,0,*42
1497506654.53,17848,17.44,74006.0,13.37,-26.81,-27.67,0,*40
1497506655.76,17849,17.44,74006.3,13.37,-25.87,-26.81,0,*4D
1497506656.98,17850,17.44,74004.5,13.37,-26.55,-27.51,0,*45
1497506658.22,17851,17.44,74008.0,13.37,-26.81,-27.89,0,*48
1497506659.44,17852,17.44,74006.3,13.37,-26.87,-28.05,0,*46
1497506660.72,17853,17.44,74008.0,13.35,-26.97,-28.09,0,*48
1497506661.95,17854,17.44,74006.5,13.35,-27.71,-28.85,0,*42
1497506663.23,17855,17.44,74010.0,13.35,-27.23,-28.25,0,*4E
1497506664.48,17856,17.44,74006.8,13.33,-26.55,-27.61,0,*44
1497506665.76,17857,17.44,74010.0,13.35,-26.33,-27.39,0,*4E
1497506667.01,17858,17.44,74006.3,13.35,-27.39,-28.53,0,*49
1497506668.28,17859,17.44,74010.5,13.35,-27.35,-28.43,0,*45
1497506669.48,17860,17.44,74008.3,13.33,-27.71,-28.69,0,*41
1497506670.71,17861,17.44,74004.5,13.33,-27.13,-28.25,0,*4C
1497506671.93,17862,17.44,74004.3,13.33,-28.05,-29.07,0,*46
1497506673.16,17863,17.44,74004.8,13.33,-27.55,-28.47,0,*48
1497506674.37,17864,17.44,74006.0,13.33,-28.15,-29.29,0,*4D
1497506675.6,17865,17.44,74006.3,13.33,-26.45,-27.39,0,*48
1497506676.85,17866,17.44,74010.3,13.33,-26.13,-26.93,0,*49
1497506678.07,17867,17.44,74004.0,13.33,-26.71,-27.89,0,*46
1497506679.3,17868,17.44,74004.8,13.33,-26.93,-27.93,0,*4E
1497506680.53,17869,17.44,74006.0,13.33,-28.31,-29.51,0,*49
1497506681.78,17870,17.44,74008.5,13.35,-28.69,-29.73,0,*4A
1497506683.01,17871,17.44,74008.3,13.29,-29.17,-30.33,0,*42
1497506684.27,17872,17.44,74006.8,13.31,-28.59,-29.67,0,*4A
1497506685.52,17873,17.44,74006.3,13.29,-27.99,-29.13,0,*42
1497506686.78,17874,17.44,74006.0,13.29,-27.35,-28.63,0,*45
1497506688.03,17875,17.44,74008.5,13.29,-27.61,-28.79,0,*4E
1497506689.26,17876,17.44,74010.0,13.29,-27.83,-28.85,0,*42
1497506690.52,17877,17.44,74008.0,13.29,-28.63,-29.51,0,*4A
1497506691.75,17878,17.44,74004.0,13.27,-27.51,-28.53,0,*46
1497506693.0,17879,17.44,74006.0,13.27,-27.89,-28.91,0,*4C
1497506694.25,17880,17.44,74004.8,13.25,-27.61,-28.79,0,*48
1497506695.46,17881,17.44,74008.0,13.25,-27.93,-28.97,0,*44
1497506696.71,17882,17.44,74004.3,13.25,-26.55,-27.61,0,*4A
1497506697.95,17883,17.44,74006.3,13.27,-27.55,-28.75,0,*42
1497506699.19,17884,17.44,74008.3,13.25,-27.07,-28.09,0,*4B
1497506700.46,17885,17.44,74012.3,13.27,-26.13,-26.97,0,*45
1497506701.71,17886,17.44,74006.3,13.27,-25.81,-26.65,0,*43
1497506702.94,17887,17.44,74004.8,13.31,-25.91,-26.87,0,*48
1497506704.18,17888,17.44,74008.0,13.31,-26.03,-27.03,0,*42
1497506705.44,17889,17.44,74008.0,13.31,-26.45,-27.45,0,*43
1497506706.7,17890,17.44,74006.8,13.31,-27.71,-28.63,0,*46
1497506707.97,17891,17.44,74004.8,13.31,-26.55,-27.39,0,*40
1497506709.23,17892,17.44,74006.5,13.31,-27.23,-28.31,0,*44
1497506710.51,17893,17.44,74008.5,13.31,-28.09,-29.13,0,*43
1497506711.77,17894,17.44,74010.3,13.31,-26.61,-27.61,0,*4F
1497506712.97,17895,17.44,74010.0,13.29,-26.61,-27.71,0,*46
1497506714.22,17896,17.44,74008.8,13.31,-28.75,-29.95,0,*43
1497506715.47,17897,17.44,74006.8,13.31,-28.15,-29.29,0,*43
1497506716.73,17898,17.44,74008.8,13.29,-28.21,-29.35,0,*4F
1497506717.94,17899,17.44,74006.0,13.29,-27.51,-28.53,0,*47
1497506719.22,17900,17.44,74006.3,13.27,-27.39,-28.25,0,*47
1497506720.5,17901,17.44,74010.8,13.27,-27.23,-28.21,0,*49
1497506721.75,17902,17.44,74004.5,13.27,-27.13,-28.21,0,*49
1497506722.99,17903,17.44,74006.8,13.27,-27.99,-29.23,0,*49
1497506724.23,17904,17.44,74006.8,13.29,-28.69,-29.89,0,*40
1497506725.49,17905,17.44,74004.5,13.27,-29.23,-30.61,0,*4E
1497506726.73,17906,17.44,74006.8,13.25,-29.67,-30.73,0,*4C
1497506727.94,17907,17.44,74006.8,13.23,-29.45,-30.67,0,*4E
1497506729.19,17908,17.44,74008.8,13.21,-28.31,-29.29,0,*43
1497506730.47,17909,17.44,74006.8,13.21,-28.09,-29.01,0,*43
1497506731.74,17910,17.44,74010.0,13.21,-28.09,-29.13,0,*48
1497506732.97,17911,17.44,74006.5,13.23,-27.83,-29.45,0,*45
1497506734.2,17912,17.44,74004.0,13.21,-30.33,-31.29,0,*4A
1497506735.44,17913,17.44,74008.8,13.19,-27.83,-28.75,0,*4C
1497506736.71,17914,17.44,74006.5,13.17,-27.19,-28.21,0,*47
1497506737.96,17915,17.44,74004.8,13.17,-27.55,-28.59,0,*41
1497506739.19,17916,17.44,74006.0,13.19,-26.97,-27.93,0,*4A
1497506740.44,17917,17.44,74006.3,13.19,-27.61,-28.79,0,*48
1497506741.66,17918,17.44,74004.8,13.19,-28.31,-29.29,0,*49
1497506742.89,17919,17.44,74004.5,13.19,-26.77,-27.77,0,*41
1497506744.11,17920,17.44,74010.3,13.19,-25.91,-26.81,0,*48
1497506745.39,17921,17.44,74008.5,13.21,-27.35,-28.47,0,*4A
1497506746.64,17922,17.44,74006.8,13.21,-27.13,-28.09,0,*47
1497506747.92,17923,17.44,74008.3,13.21,-26.29,-27.35,0,*4E
1497506749.15,17924,17.44,74010.8,13.21,-27.51,-28.69,0,*41
1497506750.39,17925,17.44,74006.3,13.21,-28.37,-29.57,0,*43
1497506751.68,17926,17.44,74008.5,13.21,-27.61,-28.63,0,*4A
1497506752.96,17927,17.44,74008.0,13.21,-26.29,-27.23,0,*4D
1497506754.22,17928,17.44,74008.3,13.21,-27.23,-28.31,0,*45
1497506755.47,17929,17.44,74006.0,13.23,-27.19,-28.05,0,*48
1497506756.75,17930,17.44,74008.3,13.21,-27.45,-28.63,0,*4B
1497506758.01,17931,17.44,74008.5,13.23,-27.61,-28.79,0,*45
1497506759.25,17932,17.44,74010.3,13.21,-28.31,-29.29,0,*4A
1497506760.48,17933,17.44,74010.8,13.21,-28.69,-29.61,0,*4A
1497506761.72,17934,17.44,74008.8,13.21,-28.69,-29.83,0,*41
1497506762.99,17935,17.44,74010.0,13.21,-28.09,-29.13,0,*4F
1497506764.25,17936,17.44,74006.0,13.21,-28.79,-29.67,0,*48
1497506765.45,17937,17.44,74004.8,13.19,-27.77,-28.69,0,*4C
1497506766.68,17938,17.44,74006.8,13.19,-26.97,-27.93,0,*46
1497506767.91,17939,17.44,74006.8,13.19,-26.77,-27.67,0,*42
1497506769.11,17940,17.44,74004.5,13.19,-27.77,-28.85,0,*4E
1497506770.32,17941,17.44,74006.0,13.23,-28.31,-29.45,0,*46
1497506771.6,17942,17.44,74006.0,13.17,-29.35,-30.55,0,*4E
1497506772.85,17943,17.44,74006.3,13.17,-28.31,-29.35,0,*44
1497506774.11,17944,17.44,74004.0,13.17,-26.49,-27.35,0,*4C
1497506775.34,17945,17.44,74006.3,13.19,-26.65,-27.61,0,*4C
1497506776.55,17946,17.44,74010.3,13.19,-27.67,-28.53,0,*42
1497506777.77,17947,17.44,74010.3,13.17,-27.67,-28.69,0,*44
1497506779.0,17948,17.44,74004.3,13.19,-27.07,-28.09,0,*45
1497506780.26,17949,17.44,74006.3,13.19,-26.81,-27.83,0,*46
1497506781.47,17950,17.44,74004.5,13.19,-28.15,-29.29,0,*43
1497506782.73,17951,17.44,74008.8,13.19,-26.81,-27.83,0,*4F
1497506783.93,17952,17.44,74008.5,13.19,-28.69,-29.83,0,*4A
1497506785.17,17953,17.44,74004.5,13.19,-27.83,-28.79,0,*44
1497506786.44,17954,17.44,74006.0,13.17,-28.43,-29.17,0,*47
1497506787.71,17955,17.44,74004.5,13.17,-27.83,-28.75,0,*40
1497506788.95,17956,17.44,74008.0,13.19,-27.83,-28.79,0,*41
1497506790.19,17957,17.44,74008.8,13.17,-27.99,-29.07,0,*4D
1497506791.42,17958,17.44,74008.5,13.17,-27.55,-28.69,0,*4B
1497506792.65,17959,17.44,74010.8,13.19,-27.13,-28.25,0,*4E
1497506793.89,17960,17.44,74008.8,13.19,-28.47,-29.51,0,*48
1497506795.12,17961,17.44,74008.0,13.13,-26.87,-27.77,0,*4B
1497506796.34,17962,17.44,74008.8,13.17,-26.87,-27.71,0,*4A
1497506797.62,17963,17.44,74008.0,13.17,-27.19,-28.21,0,*47
1497506798.85,17964,17.44,74008.0,13.19,-26.77,-27.67,0,*4A
1497506800.1,17965,17.44,74008.8,13.19,-28.79,-29.73,0,*40
1497506801.33,17966,17.44,74010.8,13.19,-27.67,-28.59,0,*4A
1497506802.56,17967,17.44,74008.8,13.19,-26.97,-27.93,0,*4C
1497506803.78,17968,17.44,74008.3,13.19,-26.61,-27.35,0,*46
1497506805.01,17969,17.44,74010.5,13.19,-27.23,-28.15,0,*4D
1497506806.22,17970,17.44,74012.0,13.19,-27.29,-28.31,0,*49
1497506807.45,17971,17.44,74008.8,13.21,-28.31,-29.45,0,*47
1497506808.7,17972,17.44,74008.3,13.17,-28.53,-29.39,0,*4E
1497506809.96,17973,17.44,74012.0,13.19,-26.93,-27.83,0,*4C
1497506811.18,17974,17.44,74010.8,13.19,-27.13,-27.83,0,*42
1497506812.43,17975,17.44,74010.8,13.21,-26.29,-27.13,0,*49
1497506813.68,17976,17.44,74010.3,13.21,-28.31,-29.29,0,*4A
1497506814.93,17977,17.44,74014.5,13.19,-26.93,-27.83,0,*48
1497506816.2,17978,17.44,74012.3,13.21,-27.29,-28.25,0,*4F
1497506817.45,17979,17.44,74012.5,13.21,-27.67,-28.79,0,*4D
1497506818.71,17980,17.44,74014.8,13.21,-26.65,-27.61,0,*4E
1497506819.94,17981,17.44,74012.3,13.23,-26.93,-27.89,0,*42
1497506821.2,17982,17.44,74014.3,13.21,-28.25,-29.45,0,*4E
1497506822.44,17983,17.44,74012.8,13.21,-27.07,-28.15,0,*44
1497506823.71,17984,17.44,74014.0,13.21,-27.35,-28.47,0,*45
1497506824.97,17985,17.44,74012.0,13.21,-26.61,-27.61,0,*4F
1497506826.22,17986,17.44,74010.5,13.21,-25.81,-26.49,0,*4A
1497506827.42,17987,17.44,74014.5,13.23,-25.87,-26.61,0,*45
1497506828.66,17988,17.44,74010.5,13.25,-27.07,-28.21,0,*4C
1497506829.92,17989,17.44,74010.5,13.25,-28.21,-29.39,0,*4E
1497506831.15,17990,17.44,74012.3,13.27,-26.65,-27.67,0,*4F
1497506832.4,17991,17.44,74008.3,13.27,-26.71,-27.71,0,*4C
1497506833.68,17992,17.44,74012.5,13.27,-26.97,-27.99,0,*41
1497506834.91,17993,17.44,74010.8,13.27,-26.65,-27.51,0,*49
1497506836.19,17994,17.44,74010.0,13.27,-26.13,-26.97,0,*44
1497506837.46,17995,17.44,74010.0,13.27,-25.81,-26.55,0,*43
1497506838.72,17996,17.44,74008.5,13.27,-25.55,-26.39,0,*43
1497506840.0,17997,17.44,74004.5,13.31,-27.39,-28.43,0,*4E
1497506841.25,17998,17.44,74006.3,13.31,-25.91,-26.71,0,*4E
1497506842.52,17999,17.44,74008.3,13.31,-25.71,-26.39,0,*4D
1497506843.75,18000,17.44,74006.3,13.31,-25.61,-26.39,0,*4A
1497506844.97,18001,17.44,74010.5,13.35,-25.23,-26.07,0,*44
1497506846.22,18002,17.44,74006.3,13.35,-25.87,-26.55,0,*4E
1497506847.5,18003,17.44,74006.5,13.35,-26.33,-27.23,0,*43
1497506848.73,18004,17.44,74010.8,13.35,-25.35,-26.03,0,*42
1497506849.96,18005,17.44,74008.5,13.37,-26.07,-26.97,0,*4E
1497506851.16,18006,17.44,74008.5,13.37,-27.71,-28.53,0,*4B
1497506852.4,18007,17.44,74008.0,13.41,-27.77,-28.63,0,*4E
1497506853.63,18008,17.44,74008.5,13.41,-26.29,-27.03,0,*42
1497506854.86,18009,17.44,74010.0,13.41,-27.83,-28.85,0,*43
1497506856.09,18010,17.44,74004.8,13.37,-26.49,-27.35,0,*49
1497506857.33,18011,17.44,74006.8,13.41,-26.33,-27.29,0,*49
1497506858.58,18012,17.44,74008.5,13.43,-26.39,-26.97,0,*46
1497506859.78,18013,17.44,74008.5,13.45,-26.87,-27.77,0,*4B
1497506861.0,18014,17.44,74008.5,13.43,-27.77,-29.07,0,*4D
1497506862.24,18015,17.44,74008.8,13.43,-26.45,-27.45,0,*44
1497506863.52,18016,17.44,74008.5,13.43,-25.75,-26.71,0,*41
1497506864.8,18017,17.44,74008.8,13.43,-25.97,-26.77,0,*4A
1497506866.02,18018,17.44,74010.8,13.45,-26.93,-27.93,0,*4F
1497506867.23,18019,17.44,74010.8,13.45,-26.39,-27.29,0,*4F
1497506868.46,18020,17.44,74008.5,13.45,-25.75,-26.61,0,*43
1497506869.71,18021,17.44,74010.8,13.47,-25.87,-26.71,0,*4C
1497506870.94,18022,17.44,74010.5,13.49,-25.87,-26.77,0,*47
1497506872.19,18023,17.44,74008.3,13.47,-25.87,-26.81,0,*41
1497506873.43,18024,17.44,74012.0,13.49,-26.17,-27.29,0,*41
1497506874.68,18025,17.44,74008.0,13.47,-26.23,-27.19,0,*4A
1497506875.93,18026,17.44,74010.3,13.49,-25.75,-26.77,0,*4E
1497506877.2,18027,17.44,74006.5,13.51,-25.81,-26.77,0,*4D
1497506878.45,18028,17.44,74006.0,13.51,-26.13,-26.87,0,*45
1497506879.69,18029,17.44,74004.0,13.53,-25.71,-26.45,0,*4F
1497506880.92,18030,17.44,74008.0,13.53,-25.39,-26.13,0,*48
1497506882.12,18031,17.44,74006.5,13.53,-25.61,-26.45,0,*47
1497506883.37,18032,17.44,74006.8,13.55,-27.23,-28.37,0,*4D
1497506884.62,18033,17.44,74004.3,13.57,-27.55,-28.43,0,*4C
1497506885.87,18034,17.44,74004.3,13.55,-26.23,-27.23,0,*40
1497506887.14,18035,17.44,74006.3,13.55,-28.09,-29.13,0,*4A
1497506888.4,18036,17.44,74006.8,13.55,-26.33,-27.07,0,*45
1497506889.63,18037,17.44,74002.3,13.55,-27.51,-28.69,0,*46
1497506890.89,18038,17.44,74004.3,13.53,-29.01,-30.01,0,*43
1497506892.11,18039,17.44,74008.3,13.53,-27.93,-28.75,0,*4D
1497506893.36,18040,17.44,74008.0,13.53,-28.21,-29.13,0,*44
1497506894.59,18041,17.44,74006.3,13.51,-27.51,-28.31,0,*4E
1497506895.84,18042,17.44,74006.8,13.51,-29.17,-30.11,0,*4A
1497506897.1,18043,17.44,74006.3,13.49,-27.61,-28.47,0,*47